CW7079 Weather Reports


time (UTC)temp
F
wind
direction
speed
knots
gust
knots
rain 1hr
in
rain 24hr
in
rain mn
in
humidity
%
barometer
mb
20260507023643 46 49 0.9 3.5 0.00 0.00 0.00 87 1016.7
20260507013545 47 49 1.7 3.5 0.00 0.00 0.00 86 1016.7
20260507010503 47 50 0.0 2.6 0.00 0.00 0.00 86 1016.8
20260507003357 48 50 0.9 3.5 0.00 0.00 0.00 86 1016.6
20260507000344 48 50 0.9 3.5 0.00 0.00 0.00 86 1016.6
20260506233309 48 49 1.7 4.3 0.00 0.00 0.00 86 1016.6
20260506215956 49 51 4.3 7.0 0.00 0.00 0.00 85 1016.3
20260506212914 49 41 4.3 7.8 0.00 0.00 0.00 85 1016.2
20260506210017 48 29 4.3 7.8 0.00 0.00 0.00 86 1015.8
20260506195853 49 13 5.2 10.4 0.00 0.00 0.00 85 1015.6
20260506185523 50 11 6.1 9.6 0.00 0.00 0.00 82 1015.2
20260506182448 51 14 6.1 11.3 0.00 0.00 0.00 81 1014.8
20260506172325 53 11 7.8 13.0 0.00 0.00 0.00 77 1014.3
20260506165359 55 9 5.2 10.4 0.00 0.00 0.00 72 1014.3
20260506162421 55 0 5.2 8.7 0.00 0.00 0.00 70 1014.3
20260506155529 55 0 7.8 13.9 0.00 0.00 0.00 69 1014.3
20260506152559 55 22 8.7 13.9 0.00 0.00 0.00 65 1014.2
20260506145626 56 19 8.7 13.0 0.00 0.00 0.00 64 1014.2
20260506132449 58 11 7.0 12.2 0.00 0.00 0.00 55 1014.2
20260506125331 57 11 8.7 13.9 0.00 0.00 0.00 59 1014.2
20260506122305 56 19 6.1 11.3 0.00 0.00 0.00 63 1014.3
20260506115249 55 36 10.4 16.5 0.00 0.00 0.00 66 1014.3
20260506112205 55 9 10.4 17.4 0.00 0.00 0.00 70 1014.3
20260506105210 54 16 9.6 16.5 0.00 0.00 0.00 74 1014.6
20260506102221 53 13 9.6 16.5 0.00 0.00 0.00 77 1014.3
20260506092232 49 11 7.0 13.9 0.00 0.00 0.00 84 1014.4
20260506072119 49 10 7.0 13.0 0.00 0.00 0.00 79 1013.9
20260506062256 45 355 3.5 7.8 0.00 0.00 0.00 86 1014.0
20260506042247 41 355 1.7 5.2 0.00 0.00 0.00 89 1014.0
20260506035144 41 0 0.9 3.5 0.00 0.00 0.00 88 1014.1
20260506032157 42 5 0.9 5.2 0.00 0.00 0.00 87 1014.2